Location: Bannatyne
(13.0833°N, 59.5333°W)
Time: 19:21:56
(UTC+00:00)

Cosmos 1727 Rocket - Pass Details

Date: 18 October 2019
Orbit: 961 x 996 km, 82.9° (Epoch: 11 November)

Event Time Altitude Azimuth Distance (km) Brightness Sun altitude
Rises 22:45:09 0° 188° (S) 3,661 7.2 -17.1°
Reaches altitude 10° 22:47:40 10° 190° (S) 2,709 6.5 -17.7°
Maximum altitude 22:53:50 71° 274° (W) 1,017 4.2 -19.2°
Drops below altitude 10° 22:59:58 10° 358° (N) 2,692 6.3 -20.7°
Sets 23:02:28 0° 0° (N) 3,637 6.9 -21.3°
